Orbital Elements at Epoch 2459000.5 (2020-May-31.0) TDB
Reference: JPL 20 (heliocentric ecliptic J2000)
Element | Value | Uncertainty (1-sigma) | Units |
e | .02544299461938766 | 3.477e-08 | |
a | 2.676932068381143 | 1.5498e-08 | au |
q | 2.608822900168855 | 9.4687e-08 | au |
i | 7.791395239544094 | 3.5964e-06 | deg |
node | 266.0895303943553 | 3.3526e-05 | deg |
peri | 24.03650604383343 | 9.8786e-05 | deg |
M | 19.75555468510618 | 9.1599e-05 | deg |
tp | 2458912.710782150824 (2020-Mar-04.21078215) | 0.00040727 | TDB |
period | 1599.758595972493 4.38 | 1.3893e-05 3.804e-08 | d yr |
n | .2250339525640467 | 1.9543e-09 | deg/d |
Q | 2.745041236593431 | 1.5893e-08 | au |
|
| | Orbit Determination Parameters
Additional Information
|